• In United Kingdom
  • List of Countries
  • For 7 days
  • Water Temperature
  • Satellite Maps
  • Weather Map
  • Weather Widgets
  • user-avatar
    Login

    Hourly Weather Ilebo

    Today, 21 November, Tuesday

    Time Temperature Precipitation Wind Pressure Humidity
    00:00 +24°C° 0 mm 0 mps 722 mmHg 73%
    01:00 +23°C° 0 mm 0 mps 721 mmHg 76%
    02:00 +23°C° 0 mm 0 mps 721 mmHg 78%
    03:00 +23°C° 0 mm 0 mps 721 mmHg 79%
    04:00 +24°C° 0 mm 1 mps 721 mmHg 80%
    05:00 +26°C° 0 mm 1 mps 721 mmHg 77%
    06:00 +27°C° 0 mm 1 mps 722 mmHg 74%
    07:00 +28°C° 0 mm 1 mps 722 mmHg 71%
    08:00 +29°C° 0 mm 0 mps 722 mmHg 61%
    09:00 +32°C° 0 mm 0 mps 723 mmHg 51%
    10:00 +36°C° 0 mm 0 mps 723 mmHg 41%
    11:00 +39°C° 0 mm 1 mps 722 mmHg 38%
    12:00 +39°C° 0 mm 2 mps 721 mmHg 35%
    13:00 +38°C° 0 mm 3 mps 720 mmHg 33%
    14:00 +37°C° 0 mm 2 mps 720 mmHg 36%
    15:00 +36°C° 0 mm 2 mps 719 mmHg 40%
    16:00 +34°C° 0 mm 1 mps 719 mmHg 44%
    17:00 +33°C° 0 mm 1 mps 719 mmHg 47%
    18:00 +31°C° 0 mm 1 mps 720 mmHg 51%
    19:00 +30°C° 0 mm 1 mps 720 mmHg 54%
    20:00 +29°C° 0 mm 1 mps 720 mmHg 56%
    21:00 +29°C° 0 mm 1 mps 721 mmHg 57%
    22:00 +28°C° 0 mm 1 mps 721 mmHg 59%
    23:00 +28°C° 0 mm 1 mps 721 mmHg 60%

    Tomorrow, 22 November, Wednesday

    Time Temperature Precipitation Wind Pressure Humidity
    00:00 +26°C° 0 mm 0 mps 721 mmHg 60%
    01:00 +25°C° 0 mm 0 mps 720 mmHg 61%
    02:00 +25°C° 0 mm 0 mps 720 mmHg 63%
    03:00 +26°C° 0 mm 1 mps 720 mmHg 66%
    04:00 +26°C° 0 mm 1 mps 720 mmHg 68%
    05:00 +26°C° 0 mm 1 mps 720 mmHg 67%
    06:00 +27°C° 0 mm 1 mps 721 mmHg 66%
    07:00 +28°C° 0 mm 1 mps 721 mmHg 65%
    08:00 +31°C° 0 mm 1 mps 722 mmHg 56%
    09:00 +34°C° 0 mm 1 mps 722 mmHg 47%
    10:00 +36°C° 0 mm 1 mps 722 mmHg 39%
    11:00 +37°C° 0 mm 1 mps 722 mmHg 34%
    12:00 +39°C° 0 mm 2 mps 721 mmHg 30%
    13:00 +39°C° 0 mm 2 mps 720 mmHg 25%
    14:00 +39°C° 0 mm 2 mps 720 mmHg 26%
    15:00 +38°C° 0 mm 2 mps 719 mmHg 27%
    16:00 +37°C° 0 mm 1 mps 719 mmHg 28%
    17:00 +34°C° 0 mm 1 mps 719 mmHg 31%
    18:00 +32°C° 0 mm 1 mps 719 mmHg 35%
    19:00 +29°C° 0 mm 1 mps 719 mmHg 39%
    20:00 +26°C° 0 mm 0 mps 720 mmHg 39%
    21:00 +26°C° 0 mm 0 mps 720 mmHg 40%
    22:00 +25°C° 0 mm 0 mps 721 mmHg 41%
    23:00 +25°C° 0 mm 0 mps 720 mmHg 42%

    Day after tomorrow, 23 November, Thursday

    Time Temperature Precipitation Wind Pressure Humidity
    00:00 +24°C° 0 mm 0 mps 720 mmHg 44%
    01:00 +23°C° 0 mm 0 mps 719 mmHg 45%
    02:00 +23°C° 0 mm 0 mps 719 mmHg 45%
    03:00 +23°C° 0 mm 0 mps 719 mmHg 46%
    04:00 +22°C° 0 mm 0 mps 719 mmHg 47%
    05:00 +23°C° 0 mm 0 mps 720 mmHg 46%
    06:00 +26°C° 0 mm 1 mps 721 mmHg 46%
    07:00 +27°C° 0 mm 1 mps 721 mmHg 46%
    08:00 +30°C° 0 mm 1 mps 722 mmHg 39%
    09:00 +33°C° 0 mm 1 mps 722 mmHg 32%
    10:00 +36°C° 0 mm 1 mps 722 mmHg 25%
    11:00 +39°C° 0 mm 1 mps 721 mmHg 23%
    12:00 +40°C° 0 mm 1 mps 721 mmHg 21%
    13:00 +41°C° 0 mm 1 mps 720 mmHg 19%
    14:00 +40°C° 0 mm 1 mps 719 mmHg 21%
    15:00 +39°C° 0 mm 1 mps 719 mmHg 23%
    16:00 +37°C° 0 mm 1 mps 718 mmHg 24%
    17:00 +33°C° 0 mm 0 mps 719 mmHg 28%
    18:00 +30°C° 0 mm 0 mps 719 mmHg 31%
    19:00 +27°C° 0 mm 0 mps 720 mmHg 34%
    20:00 +27°C° 0 mm 0 mps 720 mmHg 35%
    21:00 +28°C° 0 mm 1 mps 720 mmHg 36%
    22:00 +28°C° 0 mm 1 mps 721 mmHg 37%
    23:00 +27°C° 0 mm 1 mps 721 mmHg 41%

    24 November, Friday

    Time Temperature Precipitation Wind Pressure Humidity
    00:00 +26°C° 0 mm 1 mps 720 mmHg 45%
    01:00 +25°C° 0 mm 1 mps 720 mmHg 49%
    02:00 +25°C° 0 mm 1 mps 720 mmHg 56%
    03:00 +25°C° 0 mm 1 mps 720 mmHg 63%
    04:00 +24°C° 0 mm 1 mps 721 mmHg 70%
    05:00 +25°C° 0 mm 1 mps 721 mmHg 71%
    06:00 +26°C° 0 mm 1 mps 722 mmHg 73%
    07:00 +27°C° 0 mm 1 mps 722 mmHg 74%
    08:00 +29°C° 0 mm 1 mps 723 mmHg 66%
    09:00 +31°C° 0 mm 2 mps 723 mmHg 58%
    10:00 +34°C° 0 mm 2 mps 723 mmHg 50%
    11:00 +36°C° 0 mm 2 mps 722 mmHg 43%
    12:00 +37°C° 0 mm 1 mps 721 mmHg 36%
    13:00 +40°C° 0 mm 1 mps 720 mmHg 29%
    14:00 +35°C° 0 mm 0 mps 720 mmHg 32%
    15:00 +34°C° 0 mm 0 mps 719 mmHg 35%
    16:00 +32°C° 0 mm 0 mps 719 mmHg 38%
    17:00 +31°C° 0 mm 0 mps 720 mmHg 40%
    18:00 +30°C° 0 mm 0 mps 720 mmHg 42%
    19:00 +30°C° 0 mm 1 mps 721 mmHg 44%
    20:00 +30°C° 0 mm 1 mps 721 mmHg 45%
    21:00 +29°C° 0 mm 1 mps 721 mmHg 47%
    22:00 +29°C° 0 mm 1 mps 722 mmHg 49%
    23:00 +28°C° 0 mm 1 mps 721 mmHg 53%

    25 November, Saturday

    Time Temperature Precipitation Wind Pressure Humidity
    00:00 +27°C° 0 mm 1 mps 721 mmHg 58%
    01:00 +26°C° 0 mm 1 mps 720 mmHg 62%
    02:00 +25°C° 0 mm 1 mps 721 mmHg 66%
    03:00 +25°C° 0 mm 1 mps 721 mmHg 69%
    04:00 +24°C° 0 mm 1 mps 721 mmHg 73%
    05:00 +25°C° 0 mm 1 mps 721 mmHg 73%
    06:00 +26°C° 0 mm 1 mps 722 mmHg 72%
    07:00 +27°C° 0 mm 1 mps 723 mmHg 71%
    08:00 +29°C° 0 mm 1 mps 723 mmHg 62%
    09:00 +32°C° 0 mm 1 mps 723 mmHg 52%
    10:00 +35°C° 0 mm 1 mps 723 mmHg 43%
    11:00 +36°C° 0 mm 1 mps 723 mmHg 39%
    12:00 +37°C° 0 mm 1 mps 722 mmHg 35%
    13:00 +39°C° 0 mm 1 mps 721 mmHg 30%
    14:00 +36°C° 0 mm 1 mps 721 mmHg 33%
    15:00 +35°C° 0 mm 1 mps 721 mmHg 36%
    16:00 +34°C° 0 mm 1 mps 720 mmHg 38%
    17:00 +32°C° 0 mm 1 mps 721 mmHg 44%
    18:00 +30°C° 0 mm 1 mps 721 mmHg 50%
    19:00 +28°C° 0 mm 1 mps 722 mmHg 55%
    20:00 +28°C° 0 mm 1 mps 722 mmHg 60%
    21:00 +27°C° 0 mm 1 mps 722 mmHg 64%
    22:00 +27°C° 0 mm 1 mps 723 mmHg 69%
    23:00 +26°C° 0 mm 1 mps 723 mmHg 72%

    26 November, Sunday

    Time Temperature Precipitation Wind Pressure Humidity
    00:00 +26°C° 0 mm 1 mps 722 mmHg 75%
    01:00 +25°C° 0 mm 1 mps 722 mmHg 78%
    02:00 +25°C° 0 mm 1 mps 722 mmHg 80%
    03:00 +25°C° 0 mm 1 mps 722 mmHg 82%
    04:00 +25°C° 0 mm 1 mps 722 mmHg 84%
    05:00 +25°C° 0 mm 1 mps 723 mmHg 82%
    06:00 +26°C° 0 mm 1 mps 723 mmHg 81%
    07:00 +26°C° 0 mm 1 mps 724 mmHg 80%
    08:00 +29°C° 0 mm 1 mps 724 mmHg 67%
    09:00 +31°C° 0 mm 1 mps 724 mmHg 54%
    10:00 +35°C° 0 mm 2 mps 724 mmHg 42%
    11:00 +36°C° 0 mm 1 mps 723 mmHg 37%
    12:00 +37°C° 0 mm 1 mps 723 mmHg 31%
    13:00 +39°C° 0 mm 1 mps 722 mmHg 26%
    14:00 +37°C° 0 mm 1 mps 721 mmHg 29%
    15:00 +35°C° 0 mm 1 mps 721 mmHg 33%
    16:00 +32°C° 0 mm 0 mps 721 mmHg 36%
    17:00 +30°C° 0 mm 0 mps 721 mmHg 38%
    18:00 +29°C° 0 mm 0 mps 722 mmHg 40%
    19:00 +28°C° 0 mm 0 mps 722 mmHg 42%
    20:00 +28°C° 0 mm 0 mps 722 mmHg 43%
    21:00 +29°C° 0 mm 1 mps 723 mmHg 44%
    22:00 +29°C° 0 mm 1 mps 723 mmHg 46%
    23:00 +28°C° 0 mm 1 mps 722 mmHg 47%
    Show more